Flag for Brazil Weather past 2 weeks in São Paulo, São Paulo, Brazil

Now
73 °F

Sunny.


Feels Like: 74 °F
Forecast: 72 / 87 °F
Wind: 2 mph from North

Location: Sao Paulo Airport

Current Time: Dec 29, 2014 at 7:48:52 AM

Latest Report: Dec 29, 2014 at 7:00 AM


Visibility: 10 mi

Pressure: 29.95 "Hg

Humidity: 78%

Dew point: 66 °F

Location of São PauloLocation

Historic Weather in São Paulo — Graph

°F

São Paulo temperature yesterday

Maximum temperature yesterday: 91 °F (at 3:00 PM)
Minimum temperature yesterday: 73 °F (at 5:00 AM)
Average temperature yesterday: 84 °F

Past Weeks' High & Low Weather Summary

 TemperatureHumidityPressure
High93 °F (Dec 27, 4:00 PM)100% (Dec 22, 9:00 PM)30.24 "Hg (Dec 22, 9:00 PM)
Low34 °F (Dec 22, 9:00 PM)28% (Dec 27, 4:00 PM)29.86 "Hg (Dec 18, 4:00 PM)
Average73 °F71%30.03 "Hg
* Reported Dec 14 6:00 AM — Dec 29 6:00 AM, São Paulo, Weather by CustomWeather, © 2014

Note: Actual official high and low records may vary slightly from our data, if they occured in-between our weather recording intervals... More about our weather records

Advertising

São Paulo weather history for previous 24 hours

 ConditionsComfort  
Time TempWeatherWind HumidityBarometerVisibility
6:00 AM
Dec 29
73 °FClear.2 mph78%29.95 "Hg10 mi
5:00 AM72 °FClear.2 mph78%29.95 "Hg10 mi
4:00 AM72 °FClear.3 mph73%29.95 "Hg10 mi
3:00 AM72 °FClear.1 mph73%29.95 "Hg10 mi
2:00 AM70 °FClear.2 mph78%29.98 "Hg10 mi
1:00 AM68 °FThunderstorms. Partly cloudy.8 mph78%N/A1 mi
12:00 AM81 °FClear.7 mph66%30.01 "Hg10 mi
11:00 PM
Dec 28
84 °FClear.9 mph48%29.98 "Hg10 mi
10:00 PM82 °FClear.No wind51%29.98 "Hg10 mi
9:00 PM88 °FClear.6 mph38%29.98 "Hg10 mi
8:00 PM88 °FClear.7 mph33%29.95 "Hg10 mi
7:00 PM90 °FSunny.8 mph31%29.92 "Hg10 mi
6:00 PM91 °FSunny.9 mph28%29.92 "Hg10 mi
5:00 PM91 °FSunny.10 mph28%29.92 "Hg10 mi
4:00 PM91 °FSunny.15 mph30%29.95 "Hg10 mi
3:00 PM91 °FSunny.14 mph30%29.95 "Hg10 mi
2:00 PM90 °FSunny.12 mph31%29.98 "Hg10 mi
1:00 PM88 °FSunny.10 mph38%30.01 "Hg10 mi
12:00 PM88 °FPassing clouds.10 mph43%30.04 "HgN/A
11:00 AM86 °FSunny.10 mph46%30.04 "Hg10 mi
10:00 AM84 °FSunny.6 mph51%30.07 "Hg10 mi
9:00 AM82 °FSunny.3 mph58%30.07 "Hg10 mi
8:00 AM79 °FSunny.3 mph65%30.07 "Hg10 mi
7:00 AM73 °FSunny.1 mph78%30.04 "Hg10 mi
Weather by CustomWeather, © 2014

See weather overviewHow to use our weather pages